GRBBeta
1 60237U 24128C   24228.73340456  .00009165  00000-0  80086-3 0  9991
2 60237  61.9951  34.0950 0012577 312.6576  47.3451 14.97295550  5516
ROBUSTA-3A
1 60243U 24128J   24228.62688113  .00014172  00000-0  12583-2 0  9991
2 60243  61.9926  34.6679 0013474 286.1938  73.7667 14.96339881  5509
CatSat
1 60246U 24125J   24228.83435587  .00015622  00000-0  70243-3 0  9998
2 60246  97.3009  81.7198 0053730  68.3458 292.3488 15.19881823  4594
